Total_Precipitation_Accumulation
0.00 0.00 0.00 0.00 0.00 0.00 0.00 0.00 0.00 0.00 0.00 0.00 0.00 0.00 0.00 0.00 0.00 0.00 0.00 0.00 0.00 0.00 0.00 0.00 0.00 0.00 0.00 0.00 0.00 0.00 0.00 0.00 0.00 0.00 0.01 0.01 0.01 0.00 0.00 0.02 0.04 0.02 0.07
0.00 0.00 0.00 0.00 0.00 0.00 0.00 0.00 0.00 0.00 0.00 0.00 0.00 0.00 0.00 0.00 0.00 0.00 0.00 0.00 0.00 0.00 0.00 0.00 0.00 0.00 0.00 0.00 0.00 0.00 0.00 0.00 0.00 0.00 0.01 0.01 0.01 0.00 0.01 0.02 0.02 0.02 0.04
0.00 0.00 0.00 0.00 0.00 0.00 0.00 0.00 0.00 0.00 0.00 0.00 0.00 0.00 0.00 0.00 0.00 0.00 0.00 0.00 0.00 0.00 0.00 0.00 0.00 0.00 0.00 0.00 0.00 0.00 0.00 0.00 0.00 0.00 0.00 0.00 0.00 0.01 0.00 0.01 0.01 0.03 0.03
0.00 0.00 0.00 0.00 0.00 0.00 0.00 0.00 0.00 0.00 0.00 0.00 0.00 0.00 0.00 0.00 0.00 0.00 0.00 0.00 0.00 0.00 0.00 0.00 0.00 0.00 0.00 0.00 0.00 0.00 0.00 0.00 0.00 0.00 0.00 0.00 0.00 0.00 0.00 0.00 0.01 0.03 0.04
0.00 0.00 0.00 0.00 0.00 0.00 0.00 0.00 0.00 0.00 0.00 0.00 0.00 0.00 0.00 0.00 0.00 0.00 0.00 0.00 0.00 0.00 0.00 0.00 0.00 0.00 0.00 0.00 0.00 0.00 0.00 0.00 0.00 0.00 0.00 0.00 0.00 0.01 0.01 0.01 0.01 0.02 0.07
0.00 0.00 0.00 0.00 0.00 0.00 0.00 0.00 0.00 0.00 0.00 0.00 0.00 0.00 0.00 0.00 0.00 0.00 0.00 0.00 0.00 0.00 0.00 0.00 0.00 0.00 0.00 0.00 0.00 0.00 0.00 0.00 0.00 0.00 0.00 0.00 0.00 0.01 0.01 0.01 0.02 0.02 0.02
0.00 0.00 0.00 0.00 0.00 0.00 0.00 0.00 0.00 0.00 0.00 0.00 0.00 0.00 0.00 0.00 0.00 0.00 0.00 0.00 0.00 0.00 0.00 0.00 0.00 0.00 0.00 0.00 0.00 0.00 0.00 0.00 0.00 0.00 0.00 0.00 0.00 0.01 0.02 0.02 0.02 0.01 0.00
0.00 0.00 0.00 0.00 0.00 0.00 0.00 0.00 0.00 0.00 0.00 0.00 0.00 0.00 0.00 0.00 0.00 0.00 0.00 0.00 0.00 0.00 0.00 0.00 0.00 0.00 0.00 0.00 0.00 0.00 0.00 0.00 0.00 0.00 0.00 0.01 0.02 0.02 0.03 0.03 0.02 0.00 0.00
0.00 0.00 0.00 0.00 0.00 0.00 0.00 0.00 0.00 0.00 0.00 0.00 0.00 0.00 0.00 0.00 0.00 0.00 0.00 0.00 0.00 0.00 0.00 0.00 0.00 0.00 0.00 0.00 0.00 0.00 0.00 0.00 0.00 0.00 0.00 0.00 0.02 0.02 0.04 0.03 0.01 0.00 0.00
0.00 0.00 0.00 0.00 0.00 0.00 0.00 0.00 0.00 0.00 0.00 0.00 0.00 0.00 0.00 0.00 0.00 0.00 0.00 0.00 0.00 0.00 0.00 0.00 0.00 0.00 0.00 0.00 0.00 0.00 0.00 0.00 0.00 0.01 0.00 0.00 0.01 0.01 0.03 0.05 0.02 0.00 0.01
0.00 0.00 0.00 0.00 0.00 0.00 0.00 0.00 0.00 0.00 0.00 0.00 0.00 0.00 0.00 0.00 0.00 0.00 0.00 0.00 0.02 0.02 0.01 0.00 0.00 0.00 0.00 0.00 0.00 0.00 0.00 0.00 0.00 0.01 0.00 0.00 0.01 0.01 0.03 0.03 0.03 0.00 0.00
0.02 0.03 0.05 0.07 0.10 0.05 0.04 0.02 0.01 0.00 0.00 0.00 0.00 0.01 0.00 0.00 0.00 0.01 0.01 0.01 0.02 0.03 0.02 0.01 0.00 0.00 0.01 0.02 0.01 0.00 0.00 0.00 0.00 0.00 0.00 0.00 0.01 0.02 0.03 0.02 0.02 0.01 0.00
0.01 0.03 0.10 0.15 0.16 0.15 0.16 0.14 0.10 0.06 0.05 0.08 0.08 0.05 0.05 0.04 0.06 0.03 0.03 0.02 0.02 0.03 0.02 0.02 0.01 0.00 0.00 0.02 0.03 0.01 0.00 0.00 0.00 0.00 0.00 0.00 0.01 0.02 0.03 0.02 0.01 0.01 0.00
0.00 0.01 0.02 0.08 0.13 0.10 0.12 0.20 0.22 0.20 0.17 0.16 0.09 0.06 0.08 0.04 0.06 0.12 0.10 0.07 0.05 0.07 0.06 0.05 0.03 0.00 0.01 0.01 0.01 0.01 0.01 0.01 0.00 0.02 0.00 0.01 0.01 0.01 0.04 0.03 0.01 0.00 0.00
0.00 0.00 0.00 0.01 0.07 0.11 0.12 0.14 0.14 0.12 0.10 0.08 0.09 0.11 0.09 0.16 0.15 0.25 0.27 0.28 0.21 0.18 0.17 0.17 0.09 0.06 0.03 0.04 0.04 0.04 0.06 0.06 0.02 0.04 0.01 0.01 0.02 0.01 0.02 0.07 0.05 0.02 0.01
0.00 0.00 0.00 0.00 0.00 0.01 0.03 0.06 0.09 0.15 0.18 0.15 0.12 0.24 0.39 0.40 0.51 0.64 0.67 0.57 0.36 0.21 0.49 0.47 0.35 0.27 0.20 0.19 0.21 0.22 0.20 0.22 0.16 0.12 0.02 0.02 0.02 0.04 0.02 0.05 0.08 0.06 0.02
0.00 0.00 0.00 0.00 0.00 0.00 0.01 0.01 0.02 0.03 0.09 0.12 0.13 0.17 0.35 0.54 0.62 0.70 0.62 0.63 0.51 0.49 0.48 0.73 0.66 0.63 0.62 0.46 0.43 0.45 0.30 0.27 0.24 0.26 0.09 0.04 0.04 0.02 0.02 0.03 0.03 0.05 0.05
0.00 0.00 0.00 0.00 0.00 0.00 0.01 0.02 0.03 0.03 0.04 0.06 0.08 0.17 0.19 0.25 0.50 0.55 0.48 0.33 0.48 0.78 1.22 1.29 1.33 1.11 0.81 0.70 0.63 0.45 0.30 0.27 0.21 0.17 0.15 0.08 0.05 0.06 0.03 0.02 0.03 0.04 0.05
0.00 0.00 0.00 0.00 0.00 0.01 0.01 0.03 0.04 0.04 0.04 0.07 0.17 0.18 0.23 0.26 0.27 0.34 0.41 0.50 0.63 1.02 1.32 1.11 0.81 0.81 0.73 0.64 0.69 0.62 0.48 0.31 0.26 0.22 0.15 0.09 0.06 0.10 0.09 0.04 0.02 0.03 0.05
0.00 0.00 0.00 0.00 0.01 0.02 0.04 0.05 0.06 0.06 0.05 0.07 0.14 0.20 0.15 0.19 0.31 0.38 0.33 0.47 0.41 0.42 0.51 0.52 0.54 0.51 0.54 0.70 0.73 0.79 0.84 0.63 0.45 0.32 0.26 0.16 0.09 0.07 0.06 0.06 0.03 0.02 0.03
0.00 0.00 0.00 0.00 0.00 0.00 0.02 0.05 0.06 0.07 0.08 0.10 0.12 0.15 0.20 0.18 0.25 0.36 0.51 0.49 0.25 0.21 0.25 0.34 0.42 0.40 0.36 0.41 0.57 0.61 0.64 0.64 0.50 0.33 0.27 0.19 0.13 0.09 0.07 0.04 0.03 0.02 0.03
0.00 0.00 0.00 0.00 0.00 0.00 0.01 0.02 0.05 0.07 0.11 0.13 0.18 0.26 0.29 0.26 0.27 0.34 0.54 0.57 0.29 0.25 0.37 0.43 0.46 0.53 0.55 0.50 0.55 0.72 0.94 1.07 0.91 0.63 0.42 0.29 0.19 0.15 0.14 0.14 0.10 0.07 0.05
0.00 0.00 0.00 0.00 0.00 0.00 0.00 0.00 0.00 0.01 0.05 0.08 0.16 0.25 0.34 0.36 0.36 0.42 0.52 0.51 0.39 0.41 0.49 0.60 0.66 0.67 0.70 0.76 0.68 0.76 0.81 0.71 0.69 0.70 0.67 0.47 0.38 0.28 0.17 0.18 0.22 0.23 0.19
0.00 0.00 0.00 0.00 0.00 0.00 0.00 0.00 0.00 0.00 0.00 0.02 0.03 0.07 0.12 0.20 0.32 0.48 0.68 0.73 0.70 0.70 0.94 1.20 1.30 1.28 1.41 1.59 1.75 1.66 1.63 1.54 1.37 1.36 1.32 1.36 1.35 1.08 0.71 0.51 0.38 0.29 0.28
0.00 0.00 0.01 0.03 0.03 0.02 0.00 0.00 0.00 0.00 0.00 0.00 0.01 0.02 0.05 0.07 0.11 0.26 0.55 0.98 1.20 1.25 1.20 1.22 1.49 1.73 1.64 1.40 1.64 1.74 1.96 2.01 1.75 1.53 1.41 1.56 1.84 1.75 1.22 0.86 0.81 0.69 0.55
0.00 0.00 0.00 0.01 0.01 0.01 0.00 0.00 0.00 0.00 0.00 0.00 0.01 0.01 0.01 0.02 0.04 0.09 0.22 0.39 0.61 0.76 0.86 0.98 1.09 1.29 1.33 1.28 1.51 1.60 1.50 1.41 1.36 1.26 1.25 1.24 1.40 1.58 1.60 1.33 1.00 0.84 0.76